Location: El Corozo
(10.5833°N, 66.9667°W)
Time: 21:19:26
(UTC+00:00)

Resurs 01 Rocket - Pass Details

Date: 23 May 2024
Orbit: 629 x 641 km, 97.8° (Epoch: 25 June)

Event Time Altitude Azimuth Distance (km) Brightness Sun altitude
Exits shadow 00:08:10 22° 56° (NE) 1,416 3.1 -19.7°
Drops below altitude 10° 00:10:39 10° 24° (NNE) 2,026 4.2 -20.2°
Sets 00:13:12 0° 10° (N) 2,934 5.3 -20.8°
